Back to catalog

COSMOS 1823 DEB

AliveLEO
NORAD 18755·DEBRIS·🇷🇺 Russia

Launched Feb 20, 1987 from Plesetsk Cosmodrome

Loading…

Next Passes (next 24 hours)

TLE

FreshSource: Space-Track

Epoch: Sep 14, 2026, 03:47 UTC

1 18755U 87020AG  26257.15801414 -.00000052  00000-0 -25542-3 0  9999
2 18755  73.6388 313.1372 0033830  55.2959 334.1907 12.42511609756078

Track COSMOS 1823 DEB in real time with AllMySat

Download on the App Store